Sault Ste Marie, MI

2:26 AM EDT on May 27, 2018 (GMT -0400)
Sault Ste Marie Municipal / Sanderson Field

Weather History for KANJ - January, 2013

Change the Weather History Date:

Wednesday, January 30, 2013

  Actual Average Record
Temperature  
Mean Temperature 23 °F 15 °F  
Max Temperature 35 °F 23 °F 40 °F (1974)
Min Temperature 10 °F 7 °F -25 °F (1994)
Degree Days  
Heating Degree Days 42 50  
Month to date heating degree days 1357 1488  
Since 1 July heating degree days 4324 4747  
Moisture  
Dew Point 24 °F    
Average Humidity 81    
Maximum Humidity 92    
Minimum Humidity 70    
Precipitation  
Precipitation 0.40 in 0.07 in 0.57 in (1937)
Month to date precipitation 3.29 2.13  
Year to date precipitation 3.29 2.13  
Snow  
Snow 4.50 in 1.00 in 6.40 in (1996)
Month to date snowfall 37.3 30.5  
Since 1 July snowfall 89.3 80.7  
Snow Depth 17.00 in    
Sea Level Pressure  
Sea Level Pressure 29.28 in    
Wind  
Wind Speed 9 mph (North)    
Max Wind Speed 16 mph    
Max Gust Speed 24 mph    
Visibility 4 miles    
Events Fog , Rain , Snow    
T = Trace of Precipitation, MM = Missing Value Source: NWS Daily Summary

Daily Weather History Graph

Daily Weather History Graph

Search for Another Location

Airport or City:

Astronomy

Jan. 30, 2013 Rise Set
Actual Time 8:03 AM EST 5:39 PM EST
Civil Twilight 7:30 AM EST 6:11 PM EST
Nautical Twilight 6:54 AM EST 6:47 PM EST
Astronomical Twilight 6:19 AM EST 7:23 PM EST
Moon 9:54 PM EST (1/30) 9:14 AM EST (1/30)
Length of Visible Light 10h 40m
Length of Day
9h 36m
Waning Gibbous, 88% of the Moon is Illuminated
Jan 30
Waning Gibbous
Feb 3
Last Quarter
Feb 10
New
Feb 17
First Quarter
Feb 25
Full

Hourly Weather History & Observations

Time (EST) Temp. Windchill Dew Point Humidity Pressure Visibility Wind Dir Wind Speed Gust Speed Precip Events Conditions
12:03 AM 35.1 °F 29.3 °F 33.1 °F 92% 29.45 in 2.0 mi NW 6.9 mph - 0.01 in Rain Light Rain
12:12 AM 35.1 °F 31.0 °F 33.1 °F 92% 29.45 in 5.0 mi NNW 4.6 mph - 0.01 in Rain Light Rain
12:40 AM 35.1 °F 26.4 °F 32.0 °F 89% 29.43 in 10.0 mi NW 12.7 mph - 0.01 in Rain Light Rain
12:55 AM 34.0 °F 25.5 °F 32.0 °F 92% 29.44 in 10.0 mi NW 11.5 mph 19.6 mph 0.01 in   Overcast
1:55 AM 35.1 °F 27.4 °F 30.9 °F 85% 29.43 in 10.0 mi NW 10.4 mph 20.7 mph 0.00 in Rain Light Rain
2:36 AM 35.1 °F 28.6 °F 30.9 °F 85% 29.42 in 10.0 mi NW 8.1 mph - 0.00 in Rain Light Rain
2:55 AM 35.1 °F 27.4 °F 30.9 °F 85% 29.43 in 10.0 mi NNW 10.4 mph - 0.00 in Rain Light Rain
3:38 AM 34.0 °F 29.8 °F 30.9 °F 89% 29.37 in 10.0 mi North 4.6 mph - 0.01 in Rain Light Rain
3:55 AM 35.1 °F 28.6 °F 30.9 °F 85% 29.38 in 10.0 mi North 8.1 mph - 0.01 in   Overcast
4:55 AM 34.0 °F 28.0 °F 30.9 °F 89% 29.38 in 7.0 mi WNW 6.9 mph - 0.00 in Rain Light Rain
5:55 AM 33.1 °F 26.1 °F 30.9 °F 92% 29.37 in 10.0 mi WNW 8.1 mph - 0.02 in Rain Light Rain
6:11 AM 33.1 °F 25.5 °F 30.9 °F 92% 29.34 in 10.0 mi WNW 9.2 mph - 0.00 in Rain Light Rain
6:20 AM 34.0 °F 27.2 °F 30.9 °F 89% 29.34 in 10.0 mi NW 8.1 mph - 0.00 in Rain Light Rain
6:44 AM 34.0 °F 28.0 °F 30.9 °F 89% 29.36 in 10.0 mi WNW 6.9 mph - 0.00 in   Overcast
6:55 AM 34.0 °F 27.2 °F 30.9 °F 89% 29.37 in 10.0 mi WNW 8.1 mph - 0.00 in   Overcast
7:08 AM 34.0 °F 28.0 °F 30.9 °F 89% 29.35 in 10.0 mi WNW 6.9 mph - N/A   Overcast
7:27 AM 34.0 °F 28.0 °F 30.9 °F 89% 29.35 in 10.0 mi WNW 6.9 mph - N/A   Overcast
7:38 AM 34.0 °F 28.0 °F 30.9 °F 89% 29.33 in 10.0 mi NW 6.9 mph - N/A   Overcast
7:55 AM 34.0 °F 26.6 °F 30.9 °F 89% 29.31 in 10.0 mi NW 9.2 mph - N/A   Overcast
8:48 AM 34.0 °F 27.2 °F 30.9 °F 89% 29.33 in 10.0 mi NW 8.1 mph - 0.00 in   Overcast
8:55 AM 34.0 °F 27.2 °F 30.9 °F 89% 29.36 in 8.0 mi NW 8.1 mph - 0.00 in   Overcast
9:20 AM 34.0 °F 28.8 °F 30.9 °F 89% 29.33 in 4.0 mi NNW 5.8 mph - 0.00 in Snow Light Snow
9:33 AM 34.0 °F 28.8 °F 30.9 °F 89% 29.33 in 4.0 mi NNW 5.8 mph - 0.00 in Snow Light Snow
9:44 AM 34.0 °F 28.0 °F 30.9 °F 89% 29.32 in 3.0 mi North 6.9 mph - 0.01 in Snow Light Snow
9:55 AM 35.1 °F 29.3 °F 30.9 °F 85% 29.34 in 3.0 mi NNW 6.9 mph - 0.01 in Snow Light Snow
10:10 AM 34.0 °F 27.2 °F 30.9 °F 89% 29.30 in 5.0 mi North 8.1 mph - 0.00 in Snow Light Snow
10:55 AM 35.1 °F 31.0 °F 30.9 °F 85% 29.32 in 5.0 mi North 4.6 mph - 0.00 in Snow Light Snow
11:18 AM 34.0 °F 27.2 °F 30.0 °F 85% 29.30 in 2.5 mi NNE 8.1 mph - 0.01 in Snow Light Snow
11:27 AM 35.1 °F 28.6 °F 30.0 °F 82% 29.30 in 3.0 mi NNE 8.1 mph - 0.01 in Snow Light Snow
11:36 AM 34.0 °F 26.0 °F 28.9 °F 82% 29.30 in 4.0 mi NNE 10.4 mph - 0.01 in Snow Light Snow
11:50 AM 33.8 °F 26.4 °F 28.4 °F 81% 29.30 in 2.0 mi NE 9.2 mph - 0.01 in Snow Light Snow
11:55 AM 34.0 °F 28.0 °F 28.0 °F 79% 29.32 in 2.0 mi Variable 6.9 mph - 0.01 in Snow Light Snow
12:03 PM 33.1 °F 28.7 °F 28.9 °F 85% 29.30 in 1.5 mi NE 4.6 mph - 0.00 in Snow Light Snow
12:12 PM 33.1 °F 25.5 °F 28.0 °F 82% 29.30 in 1.8 mi NE 9.2 mph - 0.00 in Snow Light Snow
12:29 PM 32.0 °F 25.6 °F 27.0 °F 82% 29.29 in 0.8 mi NE 6.9 mph - 0.01 in Snow Light Snow
12:39 PM 30.9 °F 22.8 °F 27.0 °F 85% 29.28 in 0.5 mi NNE 9.2 mph - 0.01 in Fog , Snow Snow
12:55 PM 30.9 °F 22.2 °F 27.0 °F 85% 29.29 in 0.5 mi NNE 10.4 mph - 0.02 in Fog , Snow Snow
1:05 PM 30.9 °F 24.3 °F 27.0 °F 85% 29.27 in 0.5 mi NNE 6.9 mph - 0.01 in Fog , Snow Snow
1:55 PM 30.0 °F 22.4 °F 26.1 °F 85% 29.24 in 1.0 mi NNE 8.1 mph - 0.03 in Snow Light Snow
2:04 PM 30.0 °F 23.2 °F 26.1 °F 85% 29.21 in 1.5 mi NE 6.9 mph - 0.00 in Snow Light Snow
2:25 PM 30.0 °F 23.2 °F 25.0 °F 82% 29.20 in 1.2 mi NE 6.9 mph - 0.00 in Snow Light Snow
2:31 PM 28.9 °F 22.8 °F 25.0 °F 85% 29.19 in 0.8 mi NNE 5.8 mph - 0.00 in Snow Light Snow
2:40 PM 28.9 °F 20.4 °F 24.1 °F 82% 29.19 in 0.8 mi NE 9.2 mph - 0.01 in Snow Light Snow
2:47 PM 28.9 °F 18.6 °F 23.0 °F 78% 29.19 in 1.0 mi NE 12.7 mph - 0.01 in Snow Light Snow
2:55 PM 28.0 °F 21.7 °F 24.1 °F 85% 29.21 in 1.2 mi NE 5.8 mph - 0.01 in Snow Light Snow
3:09 PM 28.9 °F 20.4 °F 24.1 °F 82% 29.19 in 0.5 mi NE 9.2 mph - 0.00 in Snow Snow
3:32 PM 27.0 °F 18.0 °F 24.1 °F 89% 29.18 in 0.2 mi NE 9.2 mph - 0.02 in Fog , Snow Snow
3:55 PM 27.0 °F 18.7 °F 23.0 °F 85% 29.20 in 0.5 mi NE 8.1 mph 17.3 mph 0.04 in Fog , Snow Snow
4:55 PM 24.1 °F 13.1 °F 19.9 °F 84% 29.21 in 0.2 mi NNE 11.5 mph - 0.07 in Fog , Snow Snow
5:55 PM 23.0 °F 13.9 °F 19.0 °F 85% 29.23 in 0.8 mi North 8.1 mph - 0.07 in Snow Light Snow
6:41 PM 21.0 °F 8.6 °F 16.0 °F 81% 29.16 in 1.2 mi NNE 12.7 mph - 0.05 in Snow Light Snow
6:52 PM 21.0 °F 8.1 °F 16.0 °F 81% 29.18 in 2.5 mi NNE 13.8 mph 23.0 mph 0.05 in Snow Light Snow
7:01 PM 21.0 °F 11.4 °F 16.0 °F 81% 29.15 in 4.0 mi NNE 8.1 mph - 0.00 in   Overcast
7:55 PM 19.9 °F 9.3 °F 12.0 °F 71% 29.16 in 9.0 mi NNE 9.2 mph - 0.01 in   Overcast
8:55 PM 17.1 °F 4.3 °F 10.0 °F 74% 29.16 in 2.5 mi North 11.5 mph - 0.01 in Snow Light Snow
9:42 PM 15.1 °F 1.1 °F 9.0 °F 77% 29.13 in 2.5 mi North 12.7 mph - 0.01 in Snow Light Snow
9:55 PM 14.0 °F -0.2 °F 8.1 °F 77% 29.17 in 2.5 mi North 12.7 mph 17.3 mph 0.01 in Snow Light Snow
10:03 PM 14.0 °F 3.9 °F 7.0 °F 74% 29.15 in 3.0 mi North 6.9 mph 17.3 mph 0.00 in Snow Light Snow
10:08 PM 14.0 °F 3.9 °F 8.1 °F 77% 29.16 in 2.5 mi North 6.9 mph - 0.00 in Snow Light Snow
10:17 PM 14.0 °F 2.0 °F 9.0 °F 80% 29.16 in 1.5 mi North 9.2 mph - 0.01 in Snow Light Snow
10:33 PM 12.9 °F -0.9 °F 6.1 °F 74% 29.16 in 2.5 mi North 11.5 mph - 0.01 in Snow Light Snow
10:53 PM 12.2 °F -3.7 °F 5.0 °F 73% 29.14 in 2.5 mi North 15.0 mph 19.6 mph 0.01 in Snow Light Snow
10:55 PM 12.0 °F -2.7 °F 5.0 °F 73% 29.17 in 2.5 mi North 12.7 mph 19.6 mph 0.01 in Snow Light Snow
11:21 PM 10.9 °F -4.1 °F 3.9 °F 73% 29.15 in 1.5 mi North 12.7 mph - 0.00 in Snow Light Snow
11:55 PM 10.0 °F -6.5 °F 1.9 °F 70% 29.19 in 2.5 mi North 15.0 mph 21.9 mph 0.01 in Snow Light Snow
11:57 PM 10.0 °F -5.9 °F 1.9 °F 70% 29.16 in 3.0 mi North 13.8 mph 21.9 mph 0.00 in Snow Light Snow